Regional Weather Roundup
Issued by NWS

Home | Current Version | Previous Version | Text Only | Print | Product List | Glossary On
Versions: 1 2 3 4 5 6 7 8 9 10 11 12 13 14 15 16 17 18 19 20 21 22 23 24 25 26 27 28 29 30 31 32 33 34 35 36 37 38 39 40 41 42 43 44 45 46 47 48 49 50
000
ASUS44 KJAN 070810
RWRMS

MISSISSIPPI HOURLY WEATHER ROUNDUP
NATIONAL WEATHER SERVICE JACKSON MS
300 AM CDT THU MAY 07 2015

NOTE: "FAIR: INDICATES FEW OR NO CLOUDS BELOW 12,000 FEET WITH NO
SIGNIFICANT WEATHER AND/OR OBSTRUCTIONS TO VISIBILITY.

MSZ001>002-007>008-010>013-018>021-025>028-034>036-070900-
NORTHWEST MISSISSIPPI

CITY           SKY/WX    TMP DP  RH WIND       PRES   REMARKS
CLARKSDALE     FAIR      68  59  73 CALM      30.02F
CLEVELAND      FAIR      70  63  78 SE6       30.00F
GREENWOOD      MOCLDY    69  60  73 S6        30.03S
GREENVILLE     PTCLDY    70  60  70 S6        30.00S
OLIVE BRANCH   CLEAR     64  61  88 SE5       30.04F
OXFORD         FAIR      64  57  77 SE6       30.06F
TUNICA         PTSUNNY   68  59  73 SE7       30.03S
$$

MSZ003>006-009-014>017-022>024-029>033-037>039-070900-
NORTHEAST MISSISSIPPI

CITY           SKY/WX    TMP DP  RH WIND       PRES   REMARKS
COLUMBUS AFB   CLEAR     58  52  78 CALM      30.05S
GOLDN TRIANGLE PTCLDY    64  57  77 S5        30.05S
STARKVILLE     CLOUDY    63  59  88 CALM      30.07R
TUPELO         CLEAR     62  57  83 CALM      30.06R
$$

MSZ040-058-070900-
CENTRAL MISSISSIPPI

CITY           SKY/WX    TMP DP  RH WIND       PRES   REMARKS
JACKSON INTL   CLEAR     65  63  93 SE6       30.04S
JACKSON HAWKNS CLEAR     67  63  87 SE6       30.04S
MERIDIAN KEY   CLEAR     61  58  90 CALM      30.05F
MERIDIAN NAS   CLEAR     61  58  90 CALM      30.06S
RAYMOND        FAIR      66  61  82 SE3       30.03S
VICKSBURG      PTCLDY    66  63  90 SE6       30.02F
$$

MSZ059>079-070900-
SOUTH MISSISSIPPI

CITY           SKY/WX    TMP DP  RH WIND       PRES   REMARKS
BROOKHAVEN     FAIR      64  64 100 CALM      30.04F FOG
HATTIESBURG    CLEAR     62  60  93 CALM      30.05S
MCCOMB         CLEAR     67  66  97 CALM      30.03F FOG
NATCHEZ        CLEAR     68  64  88 S8        30.02S
PINE BELT      CLEAR     61  45  55 CALM      30.06S
$$

MSZ080>082-070900-
COASTAL MISSISSIPPI

CITY           SKY/WX    TMP DP  RH WIND       PRES   REMARKS
BILOXI         CLEAR     67  67 100 NE2       30.02F
PASCAGOULA     CLEAR     59  58  96 CALM      30.04S FOG
GULFPORT       PTCLDY    67  65  93 CALM      30.02F
$$


USA.gov is the U.S. government's official web portal to all federal, state and local government web resources and services.